Stations météo

réclame
Mon MeteoGroup
Capo Mele, Italie (16153): Température de l'air & dewpoint: 11.07.2018 13:00:00 - 17.07.2018 13:00:00 (CEST)Capo Mele, Italie (16153): Vitesse du vent: 11.07.2018 13:00:00 - 17.07.2018 13:00:00 (CEST)Capo Mele, Italie (16153): Direction du vent: 11.07.2018 13:00:00 - 17.07.2018 13:00:00 (CEST)Capo Mele, Italie (16153): reduced air pressure: 11.07.2018 13:00:00 - 17.07.2018 13:00:00 (CEST)Capo Mele, Italie (16153): visibility: 11.07.2018 13:00:00 - 17.07.2018 13:00:00 (CEST)Capo Mele, Italie (16153): Ensoleillement: 11.07.2018 13:00:00 - 17.07.2018 13:00:00 (CEST)
Date & Time tt [°C] td [°C] ff [km/h] ff [knt] dd ppp [hPa] vv [km] sd [min]
17.07.2018 13:00:00 27,8 18,2 9 5 WSW 1012,6 25 60
17.07.2018 12:00:00 27,8 18,2 4 2 SW 1012,4 25 60
17.07.2018 11:00:00 25,8 18,2 2 1 SW 1012,4 25 60
17.07.2018 10:00:00 25,3 17,0 0 0 N 1012,2 25 60
17.07.2018 09:00:00 24,5 17,2 0 0 N 1011,8 25 60
17.07.2018 08:00:00 22,8 17,3 0 0 N 1011,9 25 30
17.07.2018 07:00:00 22,0 14,1 0 0 N 1011,2 25 -
17.07.2018 06:00:00 22,8 12,4 0 0 N 1010,5 40 -
17.07.2018 05:00:00 22,2 12,5 9 5 SSW 1010,4 50 -
17.07.2018 04:00:00 21,4 13,1 13 7 SW 1010,4 50 -
17.07.2018 03:00:00 21,0 14,4 15 8 SW 1010,5 50 -
17.07.2018 02:00:00 21,0 14,4 16 9 SW 1010,5 50 -
17.07.2018 01:00:00 20,8 14,7 8 4 N 1010,5 50 -
17.07.2018 00:00:00 21,8 14,5 8 4 N 1010,4 40 -
16.07.2018 23:00:00 21,2 14,4 15 8 N 1010,0 40 -
16.07.2018 22:00:00 21,0 14,7 4 2 SW 1009,7 40 -
16.07.2018 21:00:00 20,2 13,9 4 2 WSW 1009,4 35 0
16.07.2018 20:00:00 17,1 16,6 13 7 W 1009,6 30 0
16.07.2018 19:00:00 16,2 16,0 18 10 NW 1012,8 10 0
16.07.2018 18:00:00 23,9 20,2 9 5 ENE 1010,5 30 0
16.07.2018 17:00:00 24,1 21,8 4 2 W 1010,8 30 0
16.07.2018 16:00:00 24,0 23,7 4 2 W 1011,0 25 0
16.07.2018 15:00:00 26,9 25,9 4 2 W 1012,0 10 0
16.07.2018 14:00:00 25,0 25,0 0 0 N 1012,5 15 0
16.07.2018 13:00:00 25,9 23,6 0 0 N 1012,4 10 0
16.07.2018 12:00:00 25,6 23,1 4 2 NW 1012,8 10 0
16.07.2018 11:00:00 24,8 21,9 5 3 NW 1012,4 10 0
16.07.2018 10:00:00 25,1 22,2 0 0 N 1012,3 15 0
16.07.2018 09:00:00 24,6 21,9 0 0 N 1013,0 15 0
16.07.2018 08:00:00 24,0 21,5 4 2 NW 1013,3 15 0
16.07.2018 07:00:00 23,6 20,7 4 2 SE 1012,9 10 -
16.07.2018 06:00:00 23,6 22,0 5 3 SSE 1012,9 12 -
16.07.2018 05:00:00 23,4 22,2 9 5 SSE 1013,3 15 -
16.07.2018 04:00:00 23,8 23,6 18 10 SSE 1013,5 10 -
16.07.2018 03:00:00 24,0 22,4 15 8 SSE 1013,4 12 -
16.07.2018 02:00:00 24,0 22,1 18 10 SSW 1013,4 12 -
16.07.2018 01:00:00 24,2 20,9 18 10 SSW 1013,4 12 -
16.07.2018 00:00:00 24,8 22,7 15 8 SSW 1013,4 12 -
15.07.2018 23:00:00 24,8 21,5 18 10 SSW 1013,2 12 -
15.07.2018 22:00:00 24,8 22,9 18 10 SSW 1012,2 12 -
15.07.2018 21:00:00 25,2 23,6 28 15 SW 1012,1 15 12
15.07.2018 20:00:00 25,8 25,1 31 17 SW 1012,2 15 54
15.07.2018 19:00:00 27,2 24,9 28 15 SW 1012,8 30 60
15.07.2018 18:00:00 26,6 22,0 24 13 SW 1013,4 35 60
15.07.2018 17:00:00 27,8 23,4 26 14 SW 1013,9 35 60
15.07.2018 16:00:00 27,8 21,1 26 14 SW 1014,0 35 60
15.07.2018 15:00:00 29,0 23,0 22 12 SW 1014,0 35 60
15.07.2018 14:00:00 29,2 24,3 22 12 SW 1014,6 35 60
15.07.2018 13:00:00 26,2 21,9 21 11 SW 1015,1 35 6
15.07.2018 12:00:00 26,8 20,9 15 8 SW 1014,9 30 60
15.07.2018 11:00:00 27,2 18,5 13 7 SW 1014,9 20 60
15.07.2018 10:00:00 27,2 19,0 8 4 SSW 1015,0 25 60
15.07.2018 09:00:00 27,2 19,3 4 2 SSW 1014,5 25 60
15.07.2018 08:00:00 24,2 17,7 5 3 SSW 1014,7 25 24
15.07.2018 07:00:00 24,8 18,0 9 5 SSW 1014,3 20 -
15.07.2018 06:00:00 24,8 18,3 8 4 SSW 1014,3 20 -
15.07.2018 05:00:00 25,0 17,7 0 0 N 1014,8 20 -
15.07.2018 04:00:00 25,2 16,9 0 0 N 1015,1 20 -
15.07.2018 03:00:00 25,6 17,5 0 0 N 1015,2 20 -
15.07.2018 02:00:00 25,8 16,9 0 0 N 1015,2 20 -
15.07.2018 01:00:00 25,8 16,9 0 0 N 1015,2 20 -
15.07.2018 00:00:00 25,8 16,9 0 0 N 1015,2 20 -
14.07.2018 23:00:00 25,0 18,2 0 0 N 1015,2 20 -
14.07.2018 22:00:00 25,0 18,0 0 0 N 1015,2 25 -
14.07.2018 21:00:00 26,0 19,6 0 0 N 1015,2 20 12
14.07.2018 20:00:00 27,0 20,6 4 2 SE 1014,4 25 60
14.07.2018 19:00:00 27,2 19,3 0 0 N 1014,8 30 60
14.07.2018 18:00:00 28,0 20,8 4 2 SSE 1015,0 30 60
14.07.2018 17:00:00 29,4 21,6 2 1 SE 1015,0 20 60
14.07.2018 16:00:00 30,6 22,2 4 2 SSE 1015,8 35 60
14.07.2018 15:00:00 30,8 22,1 5 3 ESE 1015,8 35 60
14.07.2018 14:00:00 29,6 20,5 4 2 SSE 1016,9 35 60
14.07.2018 13:00:00 28,0 18,7 5 3 SSE 1017,7 35 60
14.07.2018 12:00:00 28,2 17,7 5 3 SE 1017,2 35 60
14.07.2018 11:00:00 27,6 16,2 2 1 WSW 1017,9 35 60
14.07.2018 10:00:00 25,2 14,0 5 3 NNE 1017,8 30 60
14.07.2018 09:00:00 23,2 14,5 5 3 NNE 1018,0 30 6
14.07.2018 08:00:00 22,5 16,3 0 0 N 1018,2 25 -
14.07.2018 07:00:00 22,0 18,2 0 0 N 1018,4 25 -
14.07.2018 06:00:00 22,1 18,9 4 2 NNE 1018,3 25 -
14.07.2018 05:00:00 22,1 18,9 0 0 N 1018,1 20 -
14.07.2018 04:00:00 22,5 19,1 4 2 NE 1018,1 25 -
14.07.2018 03:00:00 22,6 19,4 4 2 NE 1018,4 25 -
14.07.2018 02:00:00 22,8 19,6 0 0 N 1018,4 25 -
14.07.2018 01:00:00 22,8 18,4 0 0 N 1018,3 25 -
14.07.2018 00:00:00 23,0 17,9 0 0 N 1018,0 25 -
13.07.2018 23:00:00 23,2 18,3 0 0 N 1018,0 25 -
13.07.2018 22:00:00 24,2 19,1 4 2 NE 1017,7 25 -
13.07.2018 21:00:00 24,2 19,1 4 2 NE 1017,6 25 24
13.07.2018 20:00:00 25,4 17,9 4 2 NE 1017,5 25 60
13.07.2018 19:00:00 26,0 18,4 11 6 NNE 1017,7 20 60
13.07.2018 18:00:00 27,0 18,6 9 5 NNE 1017,8 20 60
13.07.2018 17:00:00 27,0 17,8 21 11 NNE 1018,1 20 60
13.07.2018 16:00:00 28,0 18,7 18 10 NNW 1018,0 20 60
13.07.2018 15:00:00 28,6 21,1 24 13 NE 1018,0 25 60
13.07.2018 14:00:00 30,4 20,6 22 12 NE 1017,8 25 60
13.07.2018 13:00:00 29,6 21,8 22 12 NNE 1018,0 25 60
13.07.2018 12:00:00 29,0 20,5 22 12 NNE 1018,1 25 60
13.07.2018 11:00:00 28,0 21,1 15 8 NE 1017,9 20 60
13.07.2018 10:00:00 26,0 20,8 9 5 NE 1018,0 25 60
13.07.2018 09:00:00 24,8 20,7 15 8 NE 1017,9 25 60
13.07.2018 08:00:00 23,5 21,2 9 5 ENE 1017,4 15 30
13.07.2018 07:00:00 22,0 20,5 0 0 N 1017,0 15 0
13.07.2018 06:00:00 22,1 20,0 0 0 N 1016,7 15 -
13.07.2018 05:00:00 22,0 21,0 0 0 N 1016,4 20 -
13.07.2018 04:00:00 22,2 21,7 4 2 NW 1016,1 30 -
13.07.2018 03:00:00 22,6 22,1 0 0 N 1016,5 30 -
13.07.2018 02:00:00 22,6 21,8 0 0 N 1016,1 30 -
13.07.2018 01:00:00 23,0 21,3 0 0 N 1016,1 30 -
13.07.2018 00:00:00 23,1 21,4 0 0 N 1016,4 30 -
12.07.2018 23:00:00 23,3 21,0 0 0 N 1016,4 20 -
12.07.2018 22:00:00 23,3 21,0 4 2 SSE 1015,9 30 -
12.07.2018 21:00:00 23,5 20,7 4 2 SSW 1015,3 15 12
12.07.2018 20:00:00 24,8 21,9 9 5 SSW 1015,2 25 42
12.07.2018 19:00:00 24,9 21,6 9 5 SSW 1015,0 25 60
12.07.2018 18:00:00 25,8 22,1 15 8 W 1014,9 25 60
12.07.2018 17:00:00 26,1 21,8 13 7 WSW 1015,2 25 60
12.07.2018 16:00:00 27,0 22,0 13 7 WSW 1015,1 25 60
12.07.2018 15:00:00 27,8 21,4 9 5 S 1015,0 25 60
12.07.2018 14:00:00 28,0 21,3 4 2 S 1015,0 25 60
12.07.2018 13:00:00 29,0 22,0 0 0 N 1014,9 25 48
12.07.2018 12:00:00 26,6 21,6 0 0 N 1015,6 25 18
12.07.2018 11:00:00 26,5 20,8 0 0 N 1014,2 25 54
12.07.2018 10:00:00 26,6 20,7 4 2 SSE 1014,2 25 60
12.07.2018 09:00:00 25,1 20,4 0 0 N 1014,1 25 60
12.07.2018 08:00:00 22,4 20,0 0 0 N 1012,5 25 12
12.07.2018 07:00:00 21,8 20,1 11 6 N 1011,6 25 0
12.07.2018 06:00:00 21,8 19,7 5 3 N 1011,6 25 0
12.07.2018 05:00:00 21,4 18,8 0 0 N 1011,2 25 0
12.07.2018 04:00:00 22,4 20,3 0 0 N 1011,6 25 0
12.07.2018 03:00:00 22,6 20,5 0 0 N 1011,6 25 0
12.07.2018 02:00:00 22,6 20,5 0 0 N 1011,6 25 0
12.07.2018 01:00:00 22,6 20,1 0 0 N 1011,6 25 0
12.07.2018 00:00:00 23,4 19,8 0 0 N 1011,5 25 0
11.07.2018 23:00:00 23,6 19,5 0 0 N 1011,4 20 0
11.07.2018 22:00:00 24,2 20,5 0 0 N 1011,2 25 0
11.07.2018 21:00:00 24,8 21,3 0 0 N 1011,1 30 0
11.07.2018 20:00:00 25,4 21,7 9 5 NE 1010,9 30 6
11.07.2018 19:00:00 25,8 22,3 0 0 N 1010,3 30 6
11.07.2018 18:00:00 27,2 22,2 8 4 ENE 1010,1 15 30
11.07.2018 17:00:00 29,0 22,0 18 10 ENE 1009,7 30 60
11.07.2018 16:00:00 29,6 22,3 22 12 NE 1009,8 20 48
11.07.2018 15:00:00 30,0 22,2 26 14 NE 1009,4 25 60
11.07.2018 14:00:00 29,7 22,9 28 15 ENE 1009,4 25 60
11.07.2018 13:00:00 29,4 22,9 26 14 NE 1009,4 25 60

tt = Température de l'air
td = dewpoint
ff = Vitesse du vent
dd = Direction du vent
ppp = reduced air pressure
vv = visibility
sd = Ensoleillement

stations d'obs. à proximité